RYR1426 ESGG-EKCH

Flight info

Callsign RYR1426
Flight time 0h 35m
Altitude 19000
Route TOPLA L996 ERNOV
Aircraft B738/M-SDE2E3FGHIRWXY/LB1

Departure

Time 2026-05-05 18:13
Airport Göteborg Landvetter Airport (ESGG)

Arrival

Time 2026-05-05 18:48
Airport Copenhagen Kastrup Airport (EKCH)
Time Latitude Longitude Altitude Speed Heading
2026-05-05 17:37 57.66729 12.29267 507 ft 0 kts 116°
2026-05-05 18:01 57.66731 12.29260 507 ft 3 kts 116°
2026-05-05 18:02 57.66741 12.29214 507 ft 4 kts 104°
2026-05-05 18:02 57.66744 12.29166 507 ft 4 kts 79°
2026-05-05 18:02 57.66735 12.29130 507 ft 2 kts 27°
2026-05-05 18:02 57.66733 12.29129 507 ft 1 kts 25°
2026-05-05 18:03 57.66733 12.29128 507 ft 0 kts 25°
2026-05-05 18:05 57.66735 12.29130 507 ft 1 kts 25°
2026-05-05 18:05 57.66759 12.29134 507 ft 5 kts 336°
2026-05-05 18:06 57.66783 12.29062 507 ft 8 kts 298°
2026-05-05 18:06 57.66807 12.29007 507 ft 9 kts 324°
2026-05-05 18:06 57.66891 12.29047 508 ft 11 kts 25°
2026-05-05 18:06 57.66966 12.29114 509 ft 13 kts 25°
2026-05-05 18:07 57.67052 12.29192 510 ft 15 kts 27°
2026-05-05 18:07 57.67146 12.29280 511 ft 16 kts 25°
2026-05-05 18:07 57.67252 12.29374 512 ft 17 kts 25°
2026-05-05 18:07 57.67361 12.29471 513 ft 13 kts 25°
2026-05-05 18:08 57.67408 12.29457 513 ft 7 kts 317°
2026-05-05 18:08 57.67434 12.29380 513 ft 7 kts 294°
2026-05-05 18:08 57.67453 12.29298 513 ft 7 kts 294°
2026-05-05 18:08 57.67458 12.29262 513 ft 0 kts 275°
2026-05-05 18:11 57.67459 12.29251 513 ft 3 kts 274°
2026-05-05 18:11 57.67460 12.29176 512 ft 9 kts 270°
2026-05-05 18:11 57.67466 12.29087 511 ft 3 kts 290°
2026-05-05 18:11 57.67466 12.29050 511 ft 3 kts 233°
2026-05-05 18:12 57.67444 12.29036 511 ft 4 kts 200°
2026-05-05 18:12 57.67387 12.28982 511 ft 25 kts 205°
2026-05-05 18:12 57.66982 12.28615 509 ft 101 kts 206°
2026-05-05 18:12 57.66163 12.27856 499 ft 163 kts 207°
2026-05-05 18:13 57.65043 12.26842 949 ft 181 kts 208°
2026-05-05 18:13 57.63933 12.25857 1931 ft 185 kts 208°
2026-05-05 18:13 57.62702 12.24742 2466 ft 205 kts 208°
2026-05-05 18:13 57.61378 12.23575 3068 ft 214 kts 207°
2026-05-05 18:14 57.59957 12.22721 3761 ft 221 kts 188°
2026-05-05 18:14 57.58370 12.22760 4359 ft 233 kts 180°
2026-05-05 18:14 57.56718 12.22766 5102 ft 240 kts 186°
2026-05-05 18:14 57.55067 12.22637 6166 ft 237 kts 181°
2026-05-05 18:15 57.53415 12.22963 7003 ft 241 kts 176°
2026-05-05 18:15 57.51746 12.23447 7813 ft 245 kts 175°
2026-05-05 18:15 57.50052 12.23956 8662 ft 248 kts 176°
2026-05-05 18:15 57.48353 12.24459 9477 ft 252 kts 176°
2026-05-05 18:16 57.46588 12.24968 10271 ft 254 kts 177°
2026-05-05 18:16 57.44857 12.25459 11031 ft 257 kts 178°
2026-05-05 18:16 57.43079 12.25956 11822 ft 259 kts 179°
2026-05-05 18:16 57.41287 12.26450 12599 ft 261 kts 180°
2026-05-05 18:17 57.39478 12.26944 13372 ft 264 kts 181°
2026-05-05 18:17 57.37652 12.27439 14117 ft 266 kts 181°
2026-05-05 18:17 57.35807 12.27937 14719 ft 270 kts 181°
2026-05-05 18:17 57.33960 12.28439 15262 ft 266 kts 181°
2026-05-05 18:18 57.32100 12.28937 15871 ft 273 kts 181°
2026-05-05 18:18 57.30208 12.29443 16539 ft 275 kts 181°
2026-05-05 18:18 57.28305 12.29954 17239 ft 278 kts 181°
2026-05-05 18:18 57.26385 12.30468 17931 ft 281 kts 182°
2026-05-05 18:19 57.24440 12.30988 18556 ft 284 kts 182°
2026-05-05 18:19 57.22467 12.31515 18928 ft 287 kts 181°
2026-05-05 18:19 57.20517 12.32039 18935 ft 286 kts 181°
2026-05-05 18:19 57.18546 12.32567 18945 ft 286 kts 181°
2026-05-05 18:20 57.16571 12.33093 18946 ft 287 kts 181°
2026-05-05 18:20 57.15239 12.33447 18948 ft 287 kts 181°
2026-05-05 18:20 57.12620 12.34137 18952 ft 287 kts 182°
2026-05-05 18:20 57.10601 12.34634 18984 ft 303 kts 182°
2026-05-05 18:21 57.08425 12.35149 18977 ft 326 kts 181°
2026-05-05 18:21 57.06106 12.35704 18965 ft 340 kts 180°
2026-05-05 18:21 57.03775 12.36283 18948 ft 343 kts 180°
2026-05-05 18:21 57.01385 12.36887 18937 ft 342 kts 180°
2026-05-05 18:22 56.99025 12.37484 18937 ft 341 kts 180°
2026-05-05 18:22 56.96679 12.38074 18940 ft 340 kts 180°
2026-05-05 18:22 56.94330 12.38660 18943 ft 340 kts 180°
2026-05-05 18:22 56.92017 12.39235 18944 ft 340 kts 180°
2026-05-05 18:23 56.89676 12.39814 18944 ft 340 kts 180°
2026-05-05 18:23 56.87331 12.40391 18938 ft 340 kts 180°
2026-05-05 18:23 56.84988 12.40967 18936 ft 340 kts 180°
2026-05-05 18:23 56.82637 12.41544 18941 ft 340 kts 180°
2026-05-05 18:24 56.80302 12.42119 18928 ft 335 kts 180°
2026-05-05 18:24 56.78034 12.42685 18926 ft 323 kts 180°
2026-05-05 18:24 56.76567 12.43048 18930 ft 320 kts 181°
2026-05-05 18:24 56.74369 12.43587 18931 ft 318 kts 181°
2026-05-05 18:25 56.72174 12.44118 18920 ft 319 kts 181°
2026-05-05 18:25 56.70714 12.44469 18753 ft 320 kts 181°
2026-05-05 18:25 56.67772 12.45184 18461 ft 318 kts 180°
2026-05-05 18:25 56.65581 12.45715 18143 ft 316 kts 180°
2026-05-05 18:26 56.63405 12.46245 17793 ft 314 kts 180°
2026-05-05 18:26 56.61245 12.46770 17468 ft 312 kts 180°
2026-05-05 18:26 56.59131 12.47283 17161 ft 309 kts 180°
2026-05-05 18:26 56.56981 12.47804 16841 ft 307 kts 180°
2026-05-05 18:27 56.54897 12.48308 16533 ft 305 kts 180°
2026-05-05 18:27 56.52800 12.48815 16224 ft 303 kts 180°
2026-05-05 18:27 56.50720 12.49316 15919 ft 301 kts 180°
2026-05-05 18:27 56.48654 12.49814 15613 ft 299 kts 180°
2026-05-05 18:28 56.44551 12.50801 15021 ft 296 kts 179°
2026-05-05 18:28 56.42520 12.51289 14723 ft 294 kts 179°
2026-05-05 18:28 56.40492 12.51775 14426 ft 293 kts 179°
2026-05-05 18:29 56.38475 12.52258 14136 ft 292 kts 179°
2026-05-05 18:29 56.36466 12.52737 13847 ft 290 kts 179°
2026-05-05 18:29 56.34464 12.53215 13535 ft 289 kts 179°
2026-05-05 18:29 56.32474 12.53689 13219 ft 288 kts 179°
2026-05-05 18:30 56.30494 12.54161 12927 ft 286 kts 178°
2026-05-05 18:30 56.28525 12.54630 12637 ft 284 kts 178°
2026-05-05 18:30 56.26577 12.55094 12356 ft 281 kts 178°
2026-05-05 18:30 56.24666 12.55547 12063 ft 280 kts 178°
2026-05-05 18:31 56.22741 12.56004 11789 ft 278 kts 178°
2026-05-05 18:31 56.20827 12.56457 11500 ft 277 kts 177°
2026-05-05 18:31 56.18919 12.56908 11214 ft 276 kts 177°
2026-05-05 18:31 56.17022 12.57354 10937 ft 274 kts 178°
2026-05-05 18:32 56.15134 12.57552 10753 ft 271 kts 184°
2026-05-05 18:32 56.13232 12.57560 10569 ft 277 kts 185°
2026-05-05 18:32 56.11289 12.57535 10374 ft 282 kts 184°
2026-05-05 18:32 56.09317 12.57517 10172 ft 284 kts 184°
2026-05-05 18:33 56.07339 12.57511 10005 ft 284 kts 184°
2026-05-05 18:33 56.05374 12.57517 9949 ft 280 kts 184°
2026-05-05 18:33 56.03457 12.57531 9932 ft 270 kts 184°
2026-05-05 18:33 56.01624 12.57547 9920 ft 257 kts 184°
2026-05-05 18:34 55.99873 12.57564 9920 ft 245 kts 184°
2026-05-05 18:34 55.98213 12.57580 9924 ft 234 kts 184°
2026-05-05 18:34 55.96594 12.57592 9926 ft 232 kts 185°
2026-05-05 18:34 55.94950 12.57601 9939 ft 239 kts 184°
2026-05-05 18:35 55.93270 12.57613 9959 ft 244 kts 184°
2026-05-05 18:35 55.91577 12.57629 9949 ft 242 kts 184°
2026-05-05 18:35 55.89900 12.57646 9935 ft 240 kts 184°
2026-05-05 18:35 55.88230 12.57663 9828 ft 240 kts 184°
2026-05-05 18:36 55.86586 12.57437 9484 ft 235 kts 200°
2026-05-05 18:36 55.85060 12.56481 8881 ft 240 kts 204°
2026-05-05 18:36 55.83400 12.55356 7875 ft 264 kts 203°
2026-05-05 18:36 55.81670 12.54196 7415 ft 270 kts 202°
2026-05-05 18:37 55.79911 12.53035 7161 ft 270 kts 202°
2026-05-05 18:37 55.78150 12.51879 6967 ft 270 kts 202°
2026-05-05 18:37 55.76384 12.50727 6771 ft 271 kts 201°
2026-05-05 18:37 55.74604 12.49572 6573 ft 273 kts 201°
2026-05-05 18:38 55.72818 12.48418 6386 ft 274 kts 200°
2026-05-05 18:38 55.71024 12.47260 6182 ft 275 kts 200°
2026-05-05 18:38 55.69225 12.46101 5978 ft 276 kts 200°
2026-05-05 18:38 55.67420 12.44940 5776 ft 276 kts 200°
2026-05-05 18:39 55.65620 12.43783 5574 ft 275 kts 200°
2026-05-05 18:39 55.63822 12.42629 5384 ft 275 kts 200°
2026-05-05 18:39 55.62017 12.41472 5190 ft 274 kts 200°
2026-05-05 18:39 55.60257 12.40298 5001 ft 273 kts 206°
2026-05-05 18:40 55.58731 12.38355 4860 ft 268 kts 223°
2026-05-05 18:40 55.57345 12.36166 4737 ft 266 kts 223°
2026-05-05 18:40 55.55959 12.33993 4579 ft 266 kts 222°
2026-05-05 18:40 55.54578 12.31839 4450 ft 265 kts 222°
2026-05-05 18:41 55.53187 12.29719 4319 ft 265 kts 221°
2026-05-05 18:41 55.51773 12.27605 4195 ft 265 kts 221°
2026-05-05 18:41 55.50384 12.25537 4069 ft 265 kts 221°
2026-05-05 18:41 55.48894 12.23552 3808 ft 267 kts 206°
2026-05-05 18:42 55.47134 12.22821 3554 ft 264 kts 177°
2026-05-05 18:42 55.45412 12.23640 3294 ft 252 kts 147°
2026-05-05 18:42 55.44238 12.25707 3037 ft 231 kts 115°
2026-05-05 18:42 55.43900 12.28311 2799 ft 211 kts 82°
2026-05-05 18:43 55.44139 12.30778 2736 ft 202 kts 76°
2026-05-05 18:43 55.44444 12.33227 2692 ft 207 kts 75°
2026-05-05 18:43 55.44764 12.35735 2634 ft 211 kts 75°
2026-05-05 18:43 55.45251 12.38146 2530 ft 209 kts 52°
2026-05-05 18:44 55.46222 12.40019 2494 ft 207 kts 45°
2026-05-05 18:44 55.47224 12.41784 2492 ft 205 kts 40°
2026-05-05 18:44 55.48307 12.43426 2489 ft 204 kts 39°
2026-05-05 18:44 55.49352 12.45019 2462 ft 191 kts 40°
2026-05-05 18:45 55.50315 12.46512 2372 ft 178 kts 40°
2026-05-05 18:45 55.51203 12.47893 2177 ft 163 kts 39°
2026-05-05 18:45 55.52026 12.49173 1956 ft 153 kts 39°
2026-05-05 18:45 55.52813 12.50395 1789 ft 145 kts 39°
2026-05-05 18:46 55.53547 12.51535 1568 ft 139 kts 39°
2026-05-05 18:46 55.54284 12.52679 1377 ft 141 kts 39°
2026-05-05 18:46 55.55017 12.53816 1182 ft 143 kts 39°
2026-05-05 18:46 55.55763 12.54988 992 ft 143 kts 40°
2026-05-05 18:47 55.56505 12.56139 794 ft 142 kts 39°
2026-05-05 18:47 55.57256 12.57311 524 ft 144 kts 38°
2026-05-05 18:47 55.58003 12.58451 382 ft 140 kts 39°
2026-05-05 18:47 55.58743 12.59600 198 ft 141 kts 39°
2026-05-05 18:48 55.59460 12.60718 34 ft 135 kts 37°
2026-05-05 18:48 55.60105 12.61707 27 ft 103 kts 40°
2026-05-05 18:48 55.60533 12.62375 26 ft 61 kts 41°
2026-05-05 18:48 55.60760 12.62718 28 ft 30 kts 39°
2026-05-05 18:49 55.60942 12.62853 26 ft 28 kts 14°
2026-05-05 18:49 55.61080 12.62906 23 ft 0 kts 12°
2026-05-05 18:50 55.61086 12.62909 23 ft 2 kts 12°
2026-05-05 18:50 55.61121 12.62925 23 ft 8 kts 20°
2026-05-05 18:50 55.61183 12.63002 26 ft 14 kts 39°
2026-05-05 18:51 55.61268 12.63133 27 ft 18 kts 43°
2026-05-05 18:51 55.61375 12.63300 23 ft 23 kts 41°
2026-05-05 18:51 55.61501 12.63499 23 ft 25 kts 42°
2026-05-05 18:51 55.61633 12.63694 23 ft 24 kts 42°
2026-05-05 18:52 55.61753 12.63883 24 ft 23 kts 41°
2026-05-05 18:52 55.61836 12.64013 23 ft 14 kts 41°
2026-05-05 18:52 55.61913 12.64102 23 ft 13 kts 24°
2026-05-05 18:52 55.61995 12.64168 25 ft 13 kts 24°
2026-05-05 18:53 55.62074 12.64236 26 ft 12 kts 26°
2026-05-05 18:53 55.62143 12.64295 22 ft 0 kts 26°
2026-05-05 18:53 55.62145 12.64297 22 ft 1 kts 26°
2026-05-05 18:53 55.62151 12.64302 22 ft 1 kts 26°
2026-05-05 18:54 55.62160 12.64309 22 ft 2 kts 26°
2026-05-05 18:54 55.62188 12.64333 21 ft 8 kts 26°
2026-05-05 18:54 55.62251 12.64387 21 ft 11 kts 25°
2026-05-05 18:54 55.62318 12.64444 25 ft 10 kts 26°
2026-05-05 18:55 55.62387 12.64478 23 ft 10 kts
2026-05-05 18:55 55.62456 12.64486 23 ft 10 kts
2026-05-05 18:55 55.62510 12.64450 25 ft 6 kts 303°
2026-05-05 18:55 55.62525 12.64403 27 ft 0 kts 300°
2026-05-05 18:56 55.62525 12.64402 26 ft 0 kts 300°
2026-05-05 18:56 55.62534 12.64376 23 ft 5 kts 300°
2026-05-05 18:56 55.62564 12.64289 25 ft 11 kts 303°
2026-05-05 18:57 55.62561 12.64210 23 ft 7 kts 223°
2026-05-05 18:57 55.62521 12.64222 25 ft 7 kts 134°
2026-05-05 18:57 55.62488 12.64298 24 ft 9 kts 127°
2026-05-05 18:57 55.62446 12.64397 23 ft 11 kts 127°
2026-05-05 18:58 55.62421 12.64464 27 ft 0 kts 99°
2026-05-05 18:58 55.62410 12.64490 23 ft 7 kts 127°
2026-05-05 18:58 55.62358 12.64615 23 ft 18 kts 120°
2026-05-05 18:58 55.62344 12.64660 24 ft 4 kts 120°
2026-05-05 18:59 55.62331 12.64700 23 ft 4 kts 120°
2026-05-05 18:59 55.62336 12.64744 23 ft 4 kts 66°
2026-05-05 18:59 55.62351 12.64803 24 ft 7 kts 68°
2026-05-05 18:59 55.62345 12.64889 23 ft 8 kts 120°
2026-05-05 19:00 55.62318 12.64967 24 ft 7 kts 121°
2026-05-05 19:00 55.62292 12.65042 24 ft 7 kts 122°
2026-05-05 19:00 55.62281 12.65138 23 ft 9 kts 76°
2026-05-05 19:00 55.62293 12.65259 23 ft 11 kts 84°
2026-05-05 19:01 55.62345 12.65329 23 ft 11 kts
2026-05-05 19:01 55.62417 12.65334 23 ft 9 kts 22°
2026-05-05 19:01 55.62442 12.65419 24 ft 7 kts 84°
2026-05-05 19:01 55.62444 12.65503 23 ft 7 kts 88°
2026-05-05 19:02 55.62446 12.65586 23 ft 7 kts 88°
2026-05-05 19:02 55.62446 12.65667 23 ft 7 kts 89°
2026-05-05 19:02 55.62447 12.65751 23 ft 7 kts 89°
2026-05-05 19:02 55.62448 12.65828 23 ft 4 kts 82°
2026-05-05 19:03 55.62471 12.65846 25 ft 4 kts 344°
2026-05-05 19:03 55.62504 12.65838 23 ft 5 kts 359°
2026-05-05 19:03 55.62518 12.65837 23 ft 2 kts 359°
2026-05-05 19:03 55.62530 12.65837 23 ft 0 kts 359°